Total_Precipitation_Accumulation
0.34 0.36 0.34 0.34 0.28 0.26 0.27 0.31 0.60 0.93 1.26 1.67 1.84 1.76 1.71 1.64 1.43 1.15 1.03 0.99 0.96 0.97 0.95 0.89 0.81 0.76 0.71 0.68 0.67 0.72 0.76 0.76 0.67 0.56 0.52 0.50 0.50 0.51 0.50 0.46 0.43 0.41 0.36 0.33
0.31 0.26 0.30 0.36 0.36 0.38 0.42 0.46 0.63 1.00 1.51 1.91 1.98 1.82 1.74 1.70 1.56 1.39 1.29 1.22 1.18 1.12 1.08 1.05 0.96 0.86 0.78 0.75 0.75 0.80 0.87 0.92 0.90 0.82 0.72 0.66 0.58 0.53 0.48 0.44 0.36 0.27 0.22 0.20
0.49 0.31 0.43 0.74 0.59 0.50 0.55 0.62 0.80 1.25 1.56 1.64 1.71 1.75 1.80 1.85 1.78 1.63 1.52 1.46 1.40 1.35 1.28 1.22 1.14 1.06 1.00 0.93 0.87 0.87 0.91 0.93 0.90 0.83 0.74 0.64 0.53 0.45 0.41 0.36 0.32 0.28 0.22 0.17
0.53 0.58 1.04 0.99 0.57 0.53 0.64 0.73 0.81 1.00 1.16 1.27 1.28 1.35 1.45 1.56 1.62 1.59 1.46 1.42 1.41 1.38 1.36 1.33 1.23 1.15 1.10 1.03 0.96 0.92 0.94 0.90 0.83 0.72 0.63 0.53 0.46 0.42 0.38 0.35 0.34 0.32 0.27 0.23
0.57 0.81 1.04 0.95 0.54 0.52 0.84 1.24 1.02 0.95 0.89 0.83 0.81 0.91 1.20 1.36 1.39 1.45 1.49 1.49 1.45 1.36 1.28 1.25 1.20 1.15 1.09 1.06 0.99 0.92 0.89 0.79 0.65 0.55 0.50 0.47 0.43 0.41 0.38 0.36 0.33 0.29 0.26 0.24
0.62 0.94 1.23 1.16 0.50 0.35 0.70 1.52 1.22 1.02 0.89 0.82 0.89 1.05 1.10 1.09 1.09 1.17 1.23 1.25 1.18 1.09 1.02 1.01 1.03 1.01 0.97 0.93 0.86 0.79 0.66 0.54 0.47 0.43 0.42 0.41 0.40 0.38 0.35 0.34 0.33 0.26 0.22 0.21
0.72 1.04 1.25 0.63 0.26 0.42 1.09 1.41 1.16 0.99 0.85 0.82 1.00 1.00 0.78 0.75 0.82 0.86 0.91 0.90 0.85 0.84 0.91 0.95 0.91 0.82 0.78 0.75 0.69 0.58 0.48 0.43 0.39 0.36 0.32 0.33 0.34 0.34 0.34 0.33 0.34 0.31 0.28 0.24
0.82 1.12 1.24 0.49 0.31 0.59 0.77 0.68 0.75 0.79 0.75 0.69 0.65 0.53 0.50 0.52 0.56 0.59 0.62 0.64 0.64 0.68 0.76 0.77 0.69 0.65 0.67 0.62 0.53 0.43 0.45 0.45 0.41 0.35 0.28 0.30 0.38 0.38 0.35 0.39 0.42 0.40 0.37 0.33
0.79 0.99 0.81 0.43 0.34 0.38 0.42 0.54 0.55 0.54 0.49 0.39 0.35 0.32 0.35 0.38 0.39 0.42 0.43 0.48 0.53 0.55 0.59 0.62 0.60 0.61 0.65 0.60 0.48 0.45 0.53 0.53 0.43 0.34 0.35 0.35 0.37 0.37 0.35 0.36 0.34 0.32 0.31 0.31
0.51 0.62 0.49 0.38 0.34 0.30 0.30 0.36 0.34 0.34 0.33 0.25 0.24 0.29 0.33 0.35 0.34 0.34 0.38 0.40 0.44 0.45 0.46 0.50 0.49 0.53 0.56 0.50 0.47 0.56 0.64 0.55 0.41 0.36 0.35 0.34 0.32 0.28 0.26 0.28 0.27 0.25 0.23 0.21
0.50 0.55 0.50 0.48 0.32 0.24 0.22 0.21 0.20 0.24 0.25 0.20 0.19 0.27 0.29 0.32 0.34 0.35 0.36 0.38 0.40 0.43 0.42 0.37 0.37 0.41 0.39 0.42 0.51 0.67 0.64 0.51 0.41 0.34 0.32 0.31 0.26 0.18 0.14 0.13 0.10 0.14 0.16 0.14
0.45 0.40 0.45 0.51 0.35 0.22 0.23 0.22 0.21 0.19 0.20 0.23 0.23 0.25 0.25 0.27 0.30 0.32 0.31 0.32 0.38 0.39 0.35 0.35 0.36 0.36 0.35 0.39 0.45 0.57 0.57 0.43 0.34 0.30 0.26 0.22 0.20 0.19 0.10 0.06 0.04 0.04 0.05 0.05
0.23 0.21 0.25 0.24 0.19 0.17 0.19 0.21 0.22 0.21 0.20 0.23 0.25 0.24 0.23 0.23 0.24 0.28 0.30 0.32 0.36 0.36 0.33 0.30 0.32 0.33 0.29 0.30 0.34 0.42 0.43 0.32 0.24 0.23 0.23 0.21 0.19 0.24 0.24 0.12 0.04 0.03 0.03 0.04
0.09 0.12 0.18 0.21 0.22 0.18 0.19 0.21 0.21 0.19 0.21 0.25 0.25 0.22 0.18 0.17 0.20 0.24 0.26 0.23 0.21 0.22 0.25 0.27 0.25 0.22 0.18 0.18 0.24 0.25 0.21 0.13 0.13 0.18 0.17 0.15 0.14 0.15 0.17 0.21 0.21 0.14 0.06 0.04
0.10 0.13 0.19 0.23 0.24 0.20 0.21 0.23 0.22 0.21 0.20 0.22 0.20 0.16 0.13 0.14 0.16 0.16 0.16 0.14 0.16 0.21 0.20 0.18 0.18 0.17 0.11 0.11 0.15 0.15 0.12 0.11 0.11 0.10 0.09 0.09 0.09 0.08 0.07 0.11 0.19 0.22 0.17 0.09
0.14 0.15 0.17 0.22 0.24 0.24 0.24 0.25 0.23 0.20 0.15 0.14 0.13 0.11 0.11 0.11 0.11 0.10 0.11 0.11 0.17 0.21 0.18 0.17 0.17 0.12 0.07 0.07 0.10 0.10 0.08 0.05 0.07 0.08 0.07 0.06 0.06 0.05 0.05 0.07 0.12 0.16 0.16 0.11
0.18 0.18 0.15 0.16 0.18 0.20 0.18 0.14 0.12 0.11 0.09 0.09 0.08 0.07 0.06 0.07 0.08 0.10 0.11 0.11 0.16 0.18 0.16 0.15 0.11 0.06 0.03 0.03 0.06 0.06 0.04 0.02 0.02 0.03 0.05 0.04 0.04 0.05 0.04 0.05 0.08 0.11 0.09 0.06
0.17 0.14 0.12 0.11 0.11 0.10 0.08 0.06 0.06 0.07 0.06 0.03 0.03 0.04 0.05 0.07 0.08 0.08 0.08 0.08 0.10 0.13 0.12 0.07 0.05 0.03 0.03 0.02 0.04 0.04 0.03 0.03 0.02 0.03 0.03 0.03 0.03 0.04 0.04 0.05 0.06 0.07 0.07 0.06
0.09 0.06 0.06 0.06 0.05 0.04 0.03 0.05 0.04 0.04 0.03 0.01 0.02 0.04 0.05 0.05 0.04 0.05 0.05 0.06 0.09 0.11 0.09 0.04 0.02 0.02 0.02 0.02 0.02 0.02 0.02 0.01 0.01 0.01 0.01 0.02 0.02 0.02 0.02 0.03 0.03 0.04 0.05 0.07
0.03 0.02 0.03 0.03 0.02 0.02 0.02 0.03 0.03 0.02 0.02 0.02 0.03 0.04 0.04 0.03 0.03 0.03 0.04 0.08 0.09 0.07 0.04 0.02 0.01 0.02 0.02 0.01 0.01 0.01 0.01 0.01 0.01 0.01 0.01 0.01 0.01 0.01 0.01 0.02 0.02 0.02 0.03 0.04
0.02 0.02 0.02 0.02 0.02 0.02 0.02 0.02 0.03 0.03 0.02 0.02 0.03 0.03 0.03 0.02 0.02 0.02 0.04 0.06 0.06 0.04 0.02 0.01 0.02 0.02 0.01 0.00 0.00 0.00 0.00 0.01 0.01 0.01 0.01 0.01 0.01 0.01 0.01 0.01 0.02 0.02 0.03 0.04
0.03 0.02 0.02 0.02 0.01 0.02 0.02 0.03 0.03 0.02 0.02 0.01 0.02 0.02 0.02 0.01 0.01 0.02 0.03 0.05 0.04 0.02 0.01 0.00 0.01 0.01 0.00 0.00 0.00 0.00 0.00 0.01 0.01 0.01 0.00 0.01 0.01 0.02 0.02 0.02 0.02 0.02 0.03 0.03
0.06 0.03 0.02 0.02 0.01 0.02 0.03 0.04 0.02 0.01 0.01 0.01 0.01 0.01 0.01 0.01 0.01 0.01 0.02 0.02 0.01 0.00 0.01 0.01 0.00 0.00 0.00 0.00 0.00 0.01 0.01 0.01 0.01 0.01 0.01 0.01 0.01 0.01 0.01 0.01 0.01 0.02 0.02 0.02
0.10 0.06 0.03 0.03 0.03 0.03 0.03 0.02 0.02 0.01 0.01 0.01 0.01 0.01 0.01 0.01 0.01 0.00 0.00 0.00 0.00 0.00 0.00 0.00 0.00 0.00 0.00 0.00 0.01 0.01 0.01 0.00 0.01 0.01 0.01 0.01 0.01 0.01 0.01 0.01 0.02 0.02 0.02 0.02
0.08 0.07 0.04 0.04 0.05 0.05 0.04 0.02 0.02 0.02 0.01 0.01 0.01 0.00 0.00 0.00 0.00 0.00 0.00 0.00 0.00 0.00 0.00 0.00 0.00 0.00 0.00 0.00 0.01 0.01 0.00 0.00 0.01 0.01 0.01 0.01 0.01 0.01 0.01 0.02 0.02 0.02 0.02 0.02
0.13 0.13 0.09 0.06 0.05 0.04 0.03 0.02 0.02 0.03 0.02 0.02 0.01 0.01 0.01 0.00 0.00 0.00 0.00 0.00 0.00 0.00 0.00 0.00 0.00 0.00 0.00 0.01 0.01 0.01 0.01 0.01 0.01 0.01 0.01 0.01 0.01 0.01 0.01 0.02 0.02 0.03 0.03 0.04
0.21 0.18 0.13 0.11 0.08 0.04 0.02 0.02 0.02 0.03 0.02 0.02 0.02 0.01 0.01 0.01 0.00 0.00 0.00 0.00 0.00 0.00 0.00 0.00 0.00 0.00 0.00 0.00 0.00 0.01 0.01 0.01 0.01 0.01 0.01 0.01 0.01 0.01 0.01 0.02 0.02 0.03 0.04 0.03